User: anonymous   Login
Location: Caltech
(34.1382°N, 118.1253°W)
Time: 10:58:13
(UTC-07:00)
Language:

Cosmos 1833 Rocket - Orbit

View from above orbital plane
View from above orbital plane
View from above satellite
View from above satellite

Ground track
Ground track

The orbit data is extracted from the following two-line orbital elements,

1 17590U 87027B   15241.57401835  .00000073  00000-0  60253-4 0  9992
2 17590 071.0018 094.7009 0006813 239.0730 120.9724 14.16701462470987
Epoch (UTC): 29 August 2015 13:46:35
Eccentricity: 0.0006813
inclination: 71.0018°
perigee height: 831 km
apogee height: 841 km
right ascension of ascending node: 94.7009°
argument of perigee: 239.0730°
revolutions per day: 14.16701462
mean anomaly at epoch: 120.9724°
orbit number at epoch: 47098

The dashed part of the orbit path shows where the satellite is in the earth's shadow,  

DLR